| time (UTC) | temp F | wind direction | speed MPH | gust MPH | rain 1hr in | rain 24hr in | rain mn in | humidity % | barometer mb |
| 20260505050601 | 62 | 155 | 3.0 | 6.0 | 0.00 | 0.00 | 0.00 | 68 | 1015.1 |
| 20260505041556 | 63 | 224 | 3.0 | 9.0 | 0.00 | 0.00 | 0.00 | 67 | 1015.0 |
| 20260505041055 | 63 | 188 | 2.0 | 9.0 | 0.00 | 0.00 | 0.00 | 67 | 1015.0 |
| 20260505040820 | 63 | 200 | 2.0 | 9.0 | 0.00 | 0.00 | 0.00 | 67 | 1015.0 |
| 20260505040659 | 63 | 200 | 2.0 | 9.0 | 0.00 | 0.00 | 0.00 | 67 | 1015.0 |
| 20260505040055 | 63 | 201 | 3.0 | 7.0 | 0.00 | 0.00 | 0.00 | 66 | 1015.0 |
| 20260505035555 | 63 | 214 | 3.0 | 7.0 | 0.00 | 0.00 | 0.00 | 66 | 1015.0 |
| 20260505035054 | 63 | 211 | 3.0 | 6.0 | 0.00 | 0.00 | 0.00 | 66 | 1015.0 |
| 20260505034554 | 64 | 174 | 3.0 | 6.0 | 0.00 | 0.00 | 0.00 | 65 | 1015.0 |
| 20260505034056 | 64 | 185 | 2.0 | 6.0 | 0.00 | 0.00 | 0.00 | 65 | 1015.0 |
| 20260505033553 | 64 | 140 | 3.0 | 7.0 | 0.00 | 0.00 | 0.00 | 65 | 1015.0 |
| 20260505033052 | 64 | 228 | 3.0 | 9.0 | 0.00 | 0.00 | 0.00 | 64 | 1015.0 |
| 20260505032552 | 64 | 183 | 3.0 | 9.0 | 0.00 | 0.00 | 0.00 | 64 | 1015.0 |
| 20260505032052 | 64 | 214 | 3.0 | 10.0 | 0.00 | 0.00 | 0.00 | 65 | 1015.0 |
| 20260505031552 | 64 | 42 | 2.0 | 10.0 | 0.00 | 0.00 | 0.00 | 64 | 1014.9 |
| 20260505031053 | 64 | 190 | 2.0 | 6.0 | 0.00 | 0.00 | 0.00 | 64 | 1014.9 |
| 20260505030552 | 65 | 267 | 3.0 | 7.0 | 0.00 | 0.00 | 0.00 | 64 | 1014.9 |
| 20260505030052 | 65 | 75 | 3.0 | 7.0 | 0.00 | 0.00 | 0.00 | 63 | 1015.0 |
| 20260505025552 | 65 | 214 | 3.0 | 7.0 | 0.00 | 0.00 | 0.00 | 63 | 1014.9 |
| 20260505025053 | 65 | 225 | 3.0 | 7.0 | 0.00 | 0.00 | 0.00 | 63 | 1015.0 |
| 20260505024553 | 65 | 184 | 3.0 | 7.0 | 0.00 | 0.00 | 0.00 | 63 | 1015.0 |
| 20260505024311 | 65 | 218 | 3.0 | 9.0 | 0.00 | 0.00 | 0.00 | 63 | 1014.9 |
| 20260505024154 | 65 | 218 | 3.0 | 9.0 | 0.00 | 0.00 | 0.00 | 63 | 1014.9 |
| 20260505023549 | 66 | 218 | 3.0 | 9.0 | 0.00 | 0.00 | 0.00 | 63 | 1014.9 |
| 20260505023047 | 66 | 200 | 4.0 | 9.0 | 0.00 | 0.00 | 0.00 | 62 | 1014.8 |
| 20260505022547 | 66 | 210 | 4.0 | 8.0 | 0.00 | 0.00 | 0.00 | 62 | 1014.8 |
| 20260505022047 | 66 | 230 | 4.0 | 8.0 | 0.00 | 0.00 | 0.00 | 62 | 1014.8 |
| 20260505021547 | 67 | 193 | 4.0 | 10.0 | 0.00 | 0.00 | 0.00 | 61 | 1014.7 |
| 20260505021047 | 67 | 191 | 3.0 | 10.0 | 0.00 | 0.00 | 0.00 | 62 | 1014.7 |
| 20260505020548 | 67 | 168 | 3.0 | 9.0 | 0.00 | 0.00 | 0.00 | 62 | 1014.6 |
| 20260505020047 | 67 | 241 | 4.0 | 9.0 | 0.00 | 0.00 | 0.00 | 62 | 1014.7 |
| 20260505015547 | 67 | 159 | 4.0 | 9.0 | 0.00 | 0.00 | 0.00 | 62 | 1014.6 |
| 20260505015047 | 67 | 162 | 4.0 | 9.0 | 0.00 | 0.00 | 0.00 | 61 | 1014.6 |
| 20260505014815 | 68 | 167 | 3.0 | 9.0 | 0.00 | 0.00 | 0.00 | 61 | 1014.5 |
| 20260505014652 | 68 | 167 | 3.0 | 9.0 | 0.00 | 0.00 | 0.00 | 61 | 1014.5 |
| 20260505014046 | 68 | 174 | 4.0 | 9.0 | 0.00 | 0.00 | 0.00 | 61 | 1014.4 |
| 20260505013544 | 68 | 183 | 4.0 | 9.0 | 0.00 | 0.00 | 0.00 | 60 | 1014.4 |
| 20260505013045 | 68 | 176 | 4.0 | 8.0 | 0.00 | 0.00 | 0.00 | 60 | 1014.3 |
| 20260505012546 | 69 | 88 | 4.0 | 10.0 | 0.00 | 0.00 | 0.00 | 59 | 1014.2 |
| 20260505012046 | 69 | 208 | 4.0 | 10.0 | 0.00 | 0.00 | 0.00 | 59 | 1014.2 |
| 20260505011546 | 69 | 162 | 4.0 | 11.0 | 0.00 | 0.00 | 0.00 | 58 | 1014.1 |
| 20260505011046 | 69 | 189 | 4.0 | 11.0 | 0.00 | 0.00 | 0.00 | 57 | 1014.0 |
| 20260505010547 | 69 | 191 | 4.0 | 11.0 | 0.00 | 0.00 | 0.00 | 55 | 1013.8 |
| 20260505010308 | 69 | 169 | 4.0 | 11.0 | 0.00 | 0.00 | 0.00 | 53 | 1013.7 |
| 20260505010151 | 69 | 169 | 4.0 | 11.0 | 0.00 | 0.00 | 0.00 | 53 | 1013.7 |
| 20260505005545 | 69 | 149 | 4.0 | 11.0 | 0.00 | 0.00 | 0.00 | 50 | 1013.6 |
| 20260505005046 | 69 | 169 | 3.0 | 8.0 | 0.00 | 0.00 | 0.00 | 48 | 1013.4 |
| 20260505004543 | 69 | 156 | 2.0 | 6.0 | 0.00 | 0.00 | 0.00 | 48 | 1013.4 |
| 20260505004041 | 69 | 240 | 1.0 | 4.0 | 0.00 | 0.00 | 0.00 | 48 | 1013.2 |
| 20260505003540 | 69 | 180 | 2.0 | 5.0 | 0.00 | 0.00 | 0.00 | 48 | 1013.2 |
| 20260505003040 | 69 | 172 | 1.0 | 5.0 | 0.00 | 0.00 | 0.00 | 48 | 1013.2 |
| 20260505002542 | 69 | 186 | 1.0 | 3.0 | 0.00 | 0.00 | 0.00 | 47 | 1013.2 |
| 20260505002040 | 70 | 0 | 1.0 | 3.0 | 0.00 | 0.00 | 0.00 | 47 | 1013.2 |
| 20260505001541 | 70 | 228 | 1.0 | 2.0 | 0.00 | 0.00 | 0.00 | 46 | 1013.1 |
| 20260505001041 | 71 | 161 | 1.0 | 3.0 | 0.00 | 0.00 | 0.00 | 46 | 1013.0 |
| 20260505000542 | 71 | 185 | 1.0 | 3.0 | 0.00 | 0.00 | 0.00 | 45 | 1013.0 |
| 20260505000302 | 72 | 0 | 1.0 | 3.0 | 0.00 | 0.00 | 0.00 | 44 | 1013.0 |
| 20260505000146 | 72 | 0 | 1.0 | 3.0 | 0.00 | 0.00 | 0.00 | 44 | 1013.0 |
| 20260504235542 | 72 | 201 | 2.0 | 4.0 | 0.00 | 0.00 | 0.00 | 44 | 1012.9 |
| 20260504235042 | 72 | 157 | 2.0 | 4.0 | 0.00 | 0.00 | 0.00 | 43 | 1012.9 |
| 20260504234539 | 73 | 201 | 2.0 | 4.0 | 0.00 | 0.00 | 0.00 | 42 | 1012.8 |
| 20260504234037 | 73 | 164 | 2.0 | 5.0 | 0.00 | 0.00 | 0.00 | 42 | 1012.7 |
| 20260504233537 | 73 | 195 | 1.0 | 5.0 | 0.00 | 0.00 | 0.00 | 42 | 1012.7 |
| 20260504233258 | 73 | 0 | 1.0 | 7.0 | 0.00 | 0.00 | 0.00 | 42 | 1012.6 |
| 20260504233142 | 73 | 0 | 1.0 | 7.0 | 0.00 | 0.00 | 0.00 | 42 | 1012.6 |
| 20260504232536 | 74 | 227 | 2.0 | 7.0 | 0.00 | 0.00 | 0.00 | 41 | 1012.6 |
| 20260504232036 | 74 | 163 | 2.0 | 7.0 | 0.00 | 0.00 | 0.00 | 41 | 1012.5 |
| 20260504231536 | 74 | 180 | 3.0 | 7.0 | 0.00 | 0.00 | 0.00 | 41 | 1012.5 |
| 20260504231037 | 74 | 135 | 2.0 | 6.0 | 0.00 | 0.00 | 0.00 | 40 | 1012.5 |
| 20260504230802 | 75 | 170 | 2.0 | 7.0 | 0.00 | 0.00 | 0.00 | 40 | 1012.4 |
| 20260504230641 | 75 | 170 | 2.0 | 7.0 | 0.00 | 0.00 | 0.00 | 40 | 1012.4 |
| 20260504230036 | 75 | 157 | 3.0 | 9.0 | 0.00 | 0.00 | 0.00 | 39 | 1012.5 |
| 20260504225533 | 75 | 141 | 4.0 | 9.0 | 0.00 | 0.00 | 0.00 | 38 | 1012.5 |
| 20260504225252 | 75 | 178 | 3.0 | 9.0 | 0.00 | 0.00 | 0.00 | 38 | 1012.4 |
| 20260504225136 | 75 | 178 | 3.0 | 9.0 | 0.00 | 0.00 | 0.00 | 38 | 1012.4 |
| 20260504224529 | 76 | 145 | 2.0 | 7.0 | 0.00 | 0.00 | 0.00 | 38 | 1012.5 |
| 20260504224031 | 76 | 158 | 3.0 | 11.0 | 0.00 | 0.00 | 0.00 | 38 | 1012.5 |
| 20260504223530 | 76 | 238 | 4.0 | 11.0 | 0.00 | 0.00 | 0.00 | 38 | 1012.5 |
| 20260504223030 | 76 | 169 | 4.0 | 9.0 | 0.00 | 0.00 | 0.00 | 38 | 1012.5 |
| 20260504222529 | 76 | 185 | 4.0 | 11.0 | 0.00 | 0.00 | 0.00 | 37 | 1012.5 |
| 20260504222030 | 76 | 199 | 3.0 | 11.0 | 0.00 | 0.00 | 0.00 | 37 | 1012.5 |
| 20260504221530 | 77 | 163 | 3.0 | 8.0 | 0.00 | 0.00 | 0.00 | 38 | 1012.5 |
| 20260504221252 | 77 | 198 | 4.0 | 8.0 | 0.00 | 0.00 | 0.00 | 36 | 1012.5 |
| 20260504221134 | 77 | 198 | 4.0 | 8.0 | 0.00 | 0.00 | 0.00 | 36 | 1012.5 |
| 20260504220727 | 77 | 194 | 4.0 | 12.0 | 0.00 | 0.00 | 0.00 | 35 | 1012.4 |
| 20260504220609 | 77 | 187 | 3.0 | 7.0 | 0.00 | 0.00 | 0.00 | 36 | 1012.5 |
| 20260504220121 | 77 | 200 | 4.0 | 8.0 | 0.00 | 0.00 | 0.00 | 35 | 1012.5 |
| 20260504215635 | 77 | 194 | 4.0 | 12.0 | 0.00 | 0.00 | 0.00 | 35 | 1012.4 |
| 20260504215031 | 77 | 166 | 4.0 | 12.0 | 0.00 | 0.00 | 0.00 | 36 | 1012.5 |
| 20260504214528 | 77 | 199 | 4.0 | 11.0 | 0.00 | 0.00 | 0.00 | 35 | 1012.5 |
| 20260504214027 | 78 | 198 | 4.0 | 11.0 | 0.00 | 0.00 | 0.00 | 35 | 1012.5 |
| 20260504213751 | 78 | 193 | 4.0 | 11.0 | 0.00 | 0.00 | 0.00 | 34 | 1012.5 |
| 20260504213632 | 78 | 193 | 4.0 | 11.0 | 0.00 | 0.00 | 0.00 | 34 | 1012.5 |
| 20260504213028 | 78 | 225 | 4.0 | 11.0 | 0.00 | 0.00 | 0.00 | 34 | 1012.6 |
| 20260504212528 | 78 | 225 | 3.0 | 10.0 | 0.00 | 0.00 | 0.00 | 35 | 1012.5 |
| 20260504212028 | 79 | 233 | 2.0 | 8.0 | 0.00 | 0.00 | 0.00 | 33 | 1012.5 |
| 20260504211748 | 78 | 150 | 3.0 | 8.0 | 0.00 | 0.00 | 0.00 | 35 | 1012.6 |
| 20260504211632 | 78 | 150 | 3.0 | 8.0 | 0.00 | 0.00 | 0.00 | 35 | 1012.6 |
| 20260504211029 | 78 | 333 | 3.0 | 8.0 | 0.00 | 0.00 | 0.00 | 35 | 1012.5 |
| 20260504210528 | 78 | 214 | 3.0 | 8.0 | 0.00 | 0.00 | 0.00 | 35 | 1012.5 |
| 20260504210028 | 78 | 129 | 3.0 | 9.0 | 0.00 | 0.00 | 0.00 | 35 | 1012.6 |
| 20260504205527 | 78 | 144 | 4.0 | 10.0 | 0.00 | 0.00 | 0.00 | 34 | 1012.5 |
| 20260504205023 | 78 | 188 | 4.0 | 10.0 | 0.00 | 0.00 | 0.00 | 34 | 1012.5 |
| 20260504204524 | 78 | 179 | 4.0 | 12.0 | 0.00 | 0.00 | 0.00 | 36 | 1012.5 |
| 20260504204023 | 79 | 277 | 4.0 | 12.0 | 0.00 | 0.00 | 0.00 | 34 | 1012.6 |
| 20260504203523 | 79 | 265 | 3.0 | 9.0 | 0.00 | 0.00 | 0.00 | 35 | 1012.7 |
| 20260504203024 | 79 | 160 | 4.0 | 10.0 | 0.00 | 0.00 | 0.00 | 35 | 1012.7 |
| 20260504202524 | 78 | 162 | 5.0 | 11.0 | 0.00 | 0.00 | 0.00 | 35 | 1012.8 |
| 20260504202024 | 78 | 162 | 5.0 | 11.0 | 0.00 | 0.00 | 0.00 | 35 | 1012.8 |
| 20260504201524 | 79 | 156 | 5.0 | 13.0 | 0.00 | 0.00 | 0.00 | 34 | 1012.7 |
| 20260504201025 | 80 | 207 | 4.0 | 13.0 | 0.00 | 0.00 | 0.00 | 34 | 1012.9 |
| 20260504200525 | 80 | 153 | 3.0 | 9.0 | 0.00 | 0.00 | 0.00 | 35 | 1012.8 |
| 20260504200025 | 79 | 157 | 3.0 | 8.0 | 0.00 | 0.00 | 0.00 | 35 | 1012.8 |
| 20260504195524 | 80 | 190 | 3.0 | 7.0 | 0.00 | 0.00 | 0.00 | 36 | 1012.9 |
| 20260504195244 | 80 | 141 | 3.0 | 7.0 | 0.00 | 0.00 | 0.00 | 33 | 1012.8 |
| 20260504195124 | 80 | 141 | 3.0 | 7.0 | 0.00 | 0.00 | 0.00 | 33 | 1012.8 |
| 20260504194521 | 80 | 180 | 3.0 | 7.0 | 0.00 | 0.00 | 0.00 | 33 | 1012.9 |
| 20260504194021 | 80 | 199 | 3.0 | 9.0 | 0.00 | 0.00 | 0.00 | 31 | 1012.9 |
| 20260504193521 | 80 | 164 | 3.0 | 9.0 | 0.00 | 0.00 | 0.00 | 31 | 1013.0 |
| 20260504193021 | 80 | 161 | 3.0 | 8.0 | 0.00 | 0.00 | 0.00 | 31 | 1013.1 |
| 20260504192521 | 80 | 302 | 3.0 | 8.0 | 0.00 | 0.00 | 0.00 | 33 | 1013.3 |
| 20260504192021 | 80 | 142 | 2.0 | 6.0 | 0.00 | 0.00 | 0.00 | 34 | 1013.2 |
| 20260504191746 | 79 | 156 | 2.0 | 6.0 | 0.00 | 0.00 | 0.00 | 33 | 1013.3 |
| 20260504191626 | 79 | 156 | 2.0 | 6.0 | 0.00 | 0.00 | 0.00 | 33 | 1013.3 |
| 20260504191022 | 79 | 147 | 2.0 | 8.0 | 0.00 | 0.00 | 0.00 | 33 | 1013.3 |
| 20260504190521 | 79 | 252 | 4.0 | 8.0 | 0.00 | 0.00 | 0.00 | 33 | 1013.4 |
| 20260504190022 | 79 | 133 | 4.0 | 8.0 | 0.00 | 0.00 | 0.00 | 35 | 1013.3 |
| 20260504185521 | 79 | 248 | 4.0 | 9.0 | 0.00 | 0.00 | 0.00 | 35 | 1013.5 |
| 20260504185019 | 80 | 209 | 2.0 | 9.0 | 0.00 | 0.00 | 0.00 | 34 | 1013.6 |
| 20260504184519 | 80 | 74 | 2.0 | 6.0 | 0.00 | 0.00 | 0.00 | 35 | 1013.4 |
| 20260504184238 | 80 | 321 | 2.0 | 6.0 | 0.00 | 0.00 | 0.00 | 34 | 1013.5 |
| 20260504184123 | 80 | 321 | 2.0 | 6.0 | 0.00 | 0.00 | 0.00 | 34 | 1013.5 |
| 20260504183518 | 79 | 313 | 2.0 | 7.0 | 0.00 | 0.00 | 0.00 | 37 | 1013.6 |
| 20260504183018 | 79 | 119 | 2.0 | 7.0 | 0.00 | 0.00 | 0.00 | 35 | 1013.6 |
| 20260504182741 | 79 | 19 | 2.0 | 11.0 | 0.00 | 0.00 | 0.00 | 33 | 1013.6 |
| 20260504182623 | 79 | 19 | 2.0 | 11.0 | 0.00 | 0.00 | 0.00 | 33 | 1013.6 |
| 20260504182458 | 79 | 27 | 3.0 | 11.0 | 0.00 | 0.00 | 0.00 | 37 | 1013.7 |
| 20260504182124 | 79 | 27 | 3.0 | 11.0 | 0.00 | 0.00 | 0.00 | 37 | 1013.7 |
| 20260504181518 | 78 | 117 | 2.0 | 6.0 | 0.00 | 0.00 | 0.00 | 36 | 1013.6 |
| 20260504181018 | 78 | 0 | 2.0 | 7.0 | 0.00 | 0.00 | 0.00 | 37 | 1013.6 |
| 20260504180517 | 78 | 38 | 2.0 | 7.0 | 0.00 | 0.00 | 0.00 | 37 | 1013.7 |
| 20260504180017 | 78 | 205 | 3.0 | 10.0 | 0.00 | 0.00 | 0.00 | 38 | 1013.9 |
| 20260504175518 | 78 | 151 | 3.0 | 10.0 | 0.00 | 0.00 | 0.00 | 38 | 1014.1 |
| 20260504175014 | 78 | 133 | 3.0 | 10.0 | 0.00 | 0.00 | 0.00 | 36 | 1014.1 |
| 20260504174513 | 78 | 188 | 2.0 | 8.0 | 0.00 | 0.00 | 0.00 | 38 | 1014.2 |
| 20260504174457 | 78 | 305 | 2.0 | 5.0 | 0.00 | 0.00 | 0.00 | 39 | 1014.3 |
| 20260504174118 | 78 | 305 | 2.0 | 5.0 | 0.00 | 0.00 | 0.00 | 39 | 1014.3 |
| 20260504173737 | 78 | 289 | 2.0 | 7.0 | 0.00 | 0.00 | 0.00 | 38 | 1014.4 |
| 20260504173616 | 78 | 289 | 2.0 | 7.0 | 0.00 | 0.00 | 0.00 | 38 | 1014.4 |
| 20260504173012 | 77 | 298 | 2.0 | 7.0 | 0.00 | 0.00 | 0.00 | 40 | 1014.3 |
| 20260504173008 | 77 | 311 | 2.0 | 7.0 | 0.00 | 0.00 | 0.00 | 40 | 1014.3 |
| 20260504172512 | 77 | 226 | 3.0 | 7.0 | 0.00 | 0.00 | 0.00 | 40 | 1014.5 |
| 20260504172508 | 77 | 217 | 3.0 | 7.0 | 0.00 | 0.00 | 0.00 | 40 | 1014.5 |
| 20260504172013 | 76 | 143 | 4.0 | 9.0 | 0.00 | 0.00 | 0.00 | 40 | 1014.4 |
| 20260504172009 | 76 | 148 | 4.0 | 9.0 | 0.00 | 0.00 | 0.00 | 40 | 1014.4 |
| 20260504171512 | 76 | 62 | 4.0 | 9.0 | 0.00 | 0.00 | 0.00 | 40 | 1014.5 |
| 20260504171508 | 76 | 306 | 4.0 | 9.0 | 0.00 | 0.00 | 0.00 | 40 | 1014.5 |
| 20260504171227 | 76 | 166 | 2.0 | 9.0 | 0.00 | 0.00 | 0.00 | 42 | 1014.6 |
| 20260504171114 | 76 | 142 | 2.0 | 9.0 | 0.00 | 0.00 | 0.00 | 42 | 1014.6 |
| 20260504170509 | 76 | 158 | 2.0 | 9.0 | 0.00 | 0.00 | 0.00 | 40 | 1014.6 |
| 20260504150958 | 72 | 295 | 3.0 | 7.0 | 0.00 | 0.00 | 0.00 | 48 | 1015.6 |
| 20260504150456 | 72 | 158 | 2.0 | 7.0 | 0.00 | 0.00 | 0.00 | 51 | 1015.6 |
| 20260504140951 | 66 | 178 | 2.0 | 6.0 | 0.00 | 0.00 | 0.00 | 63 | 1016.0 |
| 20260504140448 | 65 | 228 | 2.0 | 6.0 | 0.00 | 0.00 | 0.00 | 64 | 1016.0 |
| 20260504130439 | 62 | 263 | 1.0 | 4.0 | 0.00 | 0.00 | 0.00 | 72 | 1016.2 |
| 20260504110404 | 46 | 302 | 1.0 | 2.0 | 0.00 | 0.00 | 0.00 | 98 | 1016.5 |
| 20260504100334 | 43 | 333 | 2.0 | 2.0 | 0.00 | 0.00 | 0.00 | 97 | 1016.4 |
| 20260504081800 | 43 | 323 | 1.0 | 2.0 | 0.00 | 0.00 | 0.00 | 94 | 1016.4 |
| 20260504081300 | 43 | 0 | 1.0 | 2.0 | 0.00 | 0.00 | 0.00 | 94 | 1016.4 |
| 20260504080807 | 43 | 0 | 1.0 | 2.0 | 0.00 | 0.00 | 0.00 | 93 | 1016.3 |
| 20260504080522 | 44 | 291 | 1.0 | 2.0 | 0.00 | 0.00 | 0.00 | 93 | 1016.4 |
| 20260504080404 | 44 | 291 | 1.0 | 2.0 | 0.00 | 0.00 | 0.00 | 93 | 1016.4 |
| 20260504070256 | 46 | 318 | 1.0 | 2.0 | 0.00 | 0.00 | 0.00 | 87 | 1016.4 |